Regional Weather Roundup
Issued by NWS State College, PA

Home | Current Version | Previous Version | Graphics & Text | Print | Product List | Glossary Off
Versions: 1 2 3 4 5 6 7 8 9 10 11 12 13 14 15 16 17 18 19 20 21 22 23 24 25 26 27 28 29 30 31 32 33 34 35 36 37 38 39 40 41 42 43 44 45 46 47 48 49 50

576
ASUS41 KCTP 201803
RWRCTP

REGIONAL WEATHER ROUNDUP
NATIONAL WEATHER SERVICE STATE COLLEGE PA
200 PM EDT FRI OCT 20 2017

Note: "fair" indicates few or no clouds below 12,000 feet with no
significant weather and/or obstructions to visibility.

* = STATION THAT DOES NOT REPORT PRECIPITATION /E.G. RAIN...SNOW...ETC/
    THUNDER OR FOG.

PAZ002>004-007>009-013>016-020>023-029>032-201900-
WESTERN PENNSYLVANIA

CITY           SKY/WX    TMP DP  RH WIND       PRES   REMARKS
ERIE           SUNNY     67  45  45 NW7       30.25F
MEADVILLE      SUNNY     67  30  25 VRB3      30.27F
FRANKLIN*      SUNNY     67  34  29 CALM      30.28F
NEW CASTLE     FAIR      69  28  21 SW5       30.27F
BEAVER COUNTY  SUNNY     70  36  28 CALM      30.28F
BUTLER*        SUNNY     66  34  30 CALM      30.28F
PITTSBURGH INT MOSUNNY   69  25  19 VRB3      30.28F
PITTSBURGH     SUNNY     68  29  23 SW6       30.27F
INDIANA*       SUNNY     66  32  28 CALM      30.30F
LATROBE        SUNNY     66  34  30 CALM      30.29F
WASHINGTON CO* SUNNY     70  37  29 NE6       30.30F
$$

PAZ004>006-010>012-017>019-024>028-033>037-041-042-045-046-049>053-201900-
CENTRAL PENNSYLVANIA

CITY           SKY/WX    TMP DP  RH WIND       PRES   REMARKS
BRADFORD       SUNNY     67  27  22 VRB5      30.27F
DUBOIS         SUNNY     66  31  27 VRB3      30.26F
CLEARFIELD     SUNNY     69  28  21 CALM      30.25F
JOHNSTOWN      SUNNY     65  31  28 N6        30.28F
ALTOONA        SUNNY     70  29  21 VRB5      30.26F
STATE COLLEGE  SUNNY     68  32  26 NW6       30.24F
WILLIAMSPORT   SUNNY     74  27  17 N9        30.19F
SELINSGROVE    SUNNY     71  36  27 MISG      30.22F
FT INDIANTOWN  SUNNY     71  34  26 N10       30.20F
CAPITAL CITY   SUNNY     73  38  27 VRB6      30.21F
HARRISBURG     SUNNY     71  47  42 W9        30.20F
YORK           SUNNY     71  39  31 N9        30.21F
$$

PAZ038>040-043-044-047-048-054-055-060>062-067>071-201900-
EASTERN PENNSYLVANIA

CITY           SKY/WX    TMP DP  RH WIND       PRES   REMARKS
SCRANTON       SUNNY     69  33  26 N14G20    30.21F
MOUNT POCONO   LGT RAIN  63  30  28 NW17G25   30.18F
ALLENTOWN      SUNNY     73  30  20 NW9       30.16F
QUAKERTOWN*    CLEAR     72  36  26 N8        30.18F
READING        SUNNY     72  39  30 NW10      30.18F
LANCASTER      SUNNY     71  38  29 NW12      30.20F
COATESVILLE    CLEAR     70  37  30 NW10G20   30.21F
POTTSTOWN      SUNNY     70  40  33 NW7       30.19F
BLUE BELL      SUNNY     72  37  28 W8        30.19F
DOYLESTOWN     SUNNY     71  32  23 NW10G18   30.16F
WILLOW GROVE   NOT AVBL
NORTH PHILA    SUNNY     74  35  24 NW14      30.18F
PHILADELPHIA   MOSUNNY   73  37  27 NW12      30.17F
$$




USA.gov is the U.S. government's official web portal to all federal, state and local government web resources and services.